Location: Newark
(7.0858°N, 171.3717°E)
Time: 11:22:45
(UTC+00:00)

A-11 Canister half - Pass Details

Date: 04 December 2020
Orbit: 1517 x 1683 km, 47.2° (Epoch: 19 January)

Event Time Altitude Azimuth Distance (km) Brightness Sun altitude
Rises 18:05:08 0° 189° (S) 4,656 11.7 -7.3°
Reaches altitude 10° 18:09:14 10° 174° (S) 3,682 11.4 -6.3°
Maximum altitude 18:15:40 21° 129° (SE) 2,946 11.7 -4.8°
Drops below altitude 10° 18:22:09 10° 84° (E) 3,742 12.2 -3.4°
Sets 18:26:18 0° 69° (ENE) 4,754 12.4 -2.4°
